Time,TemperatureF,DewpointF,PressureIn,WindDirection,WindDirectionDegrees,WindSpeedMPH,WindSpeedGustMPH,Humidity,HourlyPrecipIn,Conditions,Clouds,dailyrainin,SoftwareType,DateUTC
2013-05-22 00:01:00,48.0,45.0,-100.00,WSW,244,16.0,23.0,89,-99.99,,,-99.99,,2013-05-22 07:01:00,
2013-05-22 00:11:00,48.0,45.0,-100.00,WSW,244,16.0,23.0,89,-99.99,,,-99.99,,2013-05-22 07:11:00,
2013-05-22 01:02:00,49.0,45.0,-100.00,West,278,13.0,20.0,86,-99.99,,,-99.99,,2013-05-22 08:02:00,
2013-05-22 01:11:00,49.0,45.0,-100.00,West,278,13.0,20.0,86,-99.99,,,-99.99,,2013-05-22 08:11:00,
2013-05-22 02:01:00,48.0,43.0,-100.00,West,260,14.0,21.0,82,-99.99,,,-99.99,,2013-05-22 09:01:00,
2013-05-22 02:11:00,48.0,43.0,-100.00,West,260,14.0,21.0,82,-99.99,,,-99.99,,2013-05-22 09:11:00,
2013-05-22 02:53:00,46.0,41.0,-100.00,WSW,248,12.0,17.0,82,-99.99,,,-99.99,,2013-05-22 09:53:00,
2013-05-22 03:02:00,46.0,41.0,-100.00,WSW,248,12.0,17.0,82,-99.99,,,-99.99,,2013-05-22 10:02:00,
2013-05-22 03:12:00,46.0,41.0,-100.00,WSW,248,12.0,17.0,82,-99.99,,,-99.99,,2013-05-22 10:12:00,
2013-05-22 03:52:00,43.0,40.0,-100.00,WSW,240,16.0,25.0,89,-99.99,,,-99.99,,2013-05-22 10:52:00,
2013-05-22 04:02:00,43.0,40.0,-100.00,WSW,240,16.0,25.0,89,-99.99,,,-99.99,,2013-05-22 11:02:00,
2013-05-22 04:11:00,43.0,40.0,-100.00,WSW,240,16.0,25.0,89,-99.99,,,-99.99,,2013-05-22 11:11:00,
2013-05-22 05:02:00,43.0,39.0,-100.00,WSW,253,13.0,20.0,85,-99.99,,,-99.99,,2013-05-22 12:02:00,
2013-05-22 05:12:00,43.0,39.0,-100.00,WSW,253,13.0,20.0,85,-99.99,,,-99.99,,2013-05-22 12:12:00,
2013-05-22 06:01:00,41.0,39.0,-100.00,WSW,254,13.0,18.0,92,-99.99,,,-99.99,,2013-05-22 13:01:00,
2013-05-22 06:11:00,41.0,39.0,-100.00,WSW,254,13.0,18.0,92,-99.99,,,-99.99,,2013-05-22 13:11:00,
2013-05-22 07:02:00,41.0,39.0,-100.00,SSW,212,5.0,7.0,92,-99.99,,,-99.99,,2013-05-22 14:02:00,
2013-05-22 07:11:00,41.0,39.0,-100.00,SSW,212,5.0,7.0,92,-99.99,,,-99.99,,2013-05-22 14:11:00,
2013-05-22 08:01:00,43.0,39.0,-100.00,West,260,2.0,3.0,85,-99.99,,,-99.99,,2013-05-22 15:01:00,
2013-05-22 08:11:00,43.0,39.0,-100.00,West,260,2.0,3.0,85,-99.99,,,-99.99,,2013-05-22 15:11:00,
2013-05-22 09:03:00,45.0,40.0,-100.00,SW,216,7.0,12.0,82,-99.99,,,-99.99,,2013-05-22 16:03:00,
2013-05-22 09:12:00,45.0,40.0,-100.00,SW,216,7.0,12.0,82,-99.99,,,-99.99,,2013-05-22 16:12:00,
2013-05-22 10:02:00,48.0,40.0,-100.00,WSW,242,8.0,12.0,73,-99.99,,,-99.99,,2013-05-22 17:02:00,
2013-05-22 10:11:00,48.0,40.0,-100.00,WSW,242,8.0,12.0,73,-99.99,,,-99.99,,2013-05-22 17:11:00,
2013-05-22 10:53:00,50.0,40.0,-100.00,WSW,247,13.0,22.0,68,-99.99,,,-99.99,,2013-05-22 17:53:00,
2013-05-22 11:02:00,50.0,40.0,-100.00,WSW,247,13.0,22.0,68,-99.99,,,-99.99,,2013-05-22 18:02:00,
2013-05-22 11:14:00,50.0,40.0,-100.00,WSW,247,13.0,22.0,68,-99.99,,,-99.99,,2013-05-22 18:14:00,
2013-05-22 11:52:00,49.0,38.0,-100.00,WSW,252,14.0,20.0,65,-99.99,,,-99.99,,2013-05-22 18:52:00,
2013-05-22 12:02:00,49.0,38.0,-100.00,WSW,252,14.0,20.0,65,-99.99,,,-99.99,,2013-05-22 19:02:00,
2013-05-22 12:11:00,49.0,38.0,-100.00,WSW,252,14.0,20.0,65,-99.99,,,-99.99,,2013-05-22 19:11:00,
2013-05-22 13:02:00,49.0,38.0,-100.00,SW,230,12.0,16.0,65,-99.99,,,-99.99,,2013-05-22 20:02:00,
2013-05-22 13:11:00,49.0,38.0,-100.00,SW,230,12.0,16.0,65,-99.99,,,-99.99,,2013-05-22 20:11:00,
2013-05-22 13:52:00,52.0,39.0,-100.00,SSW,212,13.0,20.0,61,-99.99,,,-99.99,,2013-05-22 20:52:00,
2013-05-22 14:01:00,52.0,39.0,-100.00,SSW,212,13.0,20.0,61,-99.99,,,-99.99,,2013-05-22 21:01:00,
2013-05-22 14:11:00,52.0,39.0,-100.00,SSW,212,13.0,20.0,61,-99.99,,,-99.99,,2013-05-22 21:11:00,
2013-05-22 15:03:00,52.0,38.0,-100.00,SW,219,9.0,17.0,58,-99.99,,,-99.99,,2013-05-22 22:03:00,
2013-05-22 15:12:00,52.0,38.0,-100.00,SW,219,9.0,17.0,58,-99.99,,,-99.99,,2013-05-22 22:12:00,
2013-05-22 16:02:00,53.0,39.0,-100.00,SSW,206,13.0,22.0,58,-99.99,,,-99.99,,2013-05-22 23:02:00,
2013-05-22 16:12:00,53.0,39.0,-100.00,SSW,206,13.0,22.0,58,-99.99,,,-99.99,,2013-05-22 23:12:00,
2013-05-22 17:01:00,49.0,43.0,-100.00,SSW,201,12.0,15.0,79,-99.99,,,-99.99,,2013-05-23 00:01:00,
2013-05-22 17:11:00,49.0,43.0,-100.00,SSW,201,12.0,15.0,79,-99.99,,,-99.99,,2013-05-23 00:11:00,
2013-05-22 17:52:00,51.0,42.0,-100.00,SSW,205,14.0,20.0,71,-99.99,,,-99.99,,2013-05-23 00:52:00,
2013-05-22 18:01:00,51.0,42.0,-100.00,SSW,205,14.0,20.0,71,-99.99,,,-99.99,,2013-05-23 01:01:00,
2013-05-22 18:11:00,51.0,42.0,-100.00,SSW,205,14.0,20.0,71,-99.99,,,-99.99,,2013-05-23 01:11:00,
2013-05-22 19:01:00,52.0,43.0,-100.00,South,176,10.0,17.0,71,-99.99,,,-99.99,,2013-05-23 02:01:00,
2013-05-22 19:11:00,52.0,43.0,-100.00,South,176,10.0,17.0,71,-99.99,,,-99.99,,2013-05-23 02:11:00,
2013-05-22 20:01:00,54.0,40.0,-100.00,SSW,211,5.0,10.0,58,-99.99,,,-99.99,,2013-05-23 03:01:00,
2013-05-22 20:11:00,54.0,40.0,-100.00,SSW,211,5.0,10.0,58,-99.99,,,-99.99,,2013-05-23 03:11:00,
2013-05-22 20:53:00,53.0,41.0,-100.00,South,170,7.0,12.0,63,-99.99,,,-99.99,,2013-05-23 03:53:00,
2013-05-22 21:03:00,53.0,41.0,-100.00,South,170,7.0,12.0,63,-99.99,,,-99.99,,2013-05-23 04:03:00,
2013-05-22 21:12:00,53.0,41.0,-100.00,South,170,7.0,12.0,63,-99.99,,,-99.99,,2013-05-23 04:12:00,
2013-05-22 21:52:00,51.0,40.0,-100.00,South,175,7.0,13.0,65,-99.99,,,-99.99,,2013-05-23 04:52:00,
2013-05-22 22:02:00,51.0,40.0,-100.00,South,175,7.0,13.0,65,-99.99,,,-99.99,,2013-05-23 05:02:00,
2013-05-22 22:11:00,51.0,40.0,-100.00,South,175,7.0,13.0,65,-99.99,,,-99.99,,2013-05-23 05:11:00,
2013-05-22 22:52:00,49.0,40.0,-100.00,SSE,163,9.0,14.0,70,-99.99,,,-99.99,,2013-05-23 05:52:00,
2013-05-22 23:02:00,49.0,40.0,-100.00,SSE,163,9.0,14.0,70,-99.99,,,-99.99,,2013-05-23 06:02:00,
2013-05-22 23:12:00,49.0,40.0,-100.00,SSE,163,9.0,14.0,70,-99.99,,,-99.99,,2013-05-23 06:12:00,